TimeCDT,TemperatureF,Dew PointF,Humidity,Sea Level PressureIn,VisibilityMPH,Wind Direction,Wind SpeedMPH,Gust SpeedMPH,PrecipitationIn,Events,Conditions,WindDirDegrees,DateUTC
12:15 AM,30.2,21.2,69,30.16,10.0,WNW,4.6,-,N/A,,Mostly Cloudy,300,2013-03-26 05:15:00
12:35 AM,30.2,21.2,69,30.17,10.0,WNW,5.8,-,N/A,,Scattered Clouds,290,2013-03-26 05:35:00
12:55 AM,28.4,21.2,74,30.17,10.0,WNW,3.5,-,N/A,,Clear,300,2013-03-26 05:55:00
1:15 AM,28.4,21.2,74,30.17,10.0,Calm,Calm,-,N/A,,Clear,0,2013-03-26 06:15:00
1:35 AM,26.6,21.2,80,30.18,10.0,Calm,Calm,-,N/A,,Clear,0,2013-03-26 06:35:00
1:55 AM,26.6,21.2,80,30.18,10.0,Calm,Calm,-,N/A,,Clear,0,2013-03-26 06:55:00
2:15 AM,26.6,21.2,80,30.18,10.0,North,-9999.0,-,N/A,,Clear,0,2013-03-26 07:15:00
2:35 AM,26.6,19.4,74,30.18,10.0,NNW,3.5,-,N/A,,Clear,330,2013-03-26 07:35:00
2:55 AM,26.6,19.4,74,30.19,10.0,NNW,3.5,-,N/A,,Clear,330,2013-03-26 07:55:00
3:15 AM,26.6,19.4,74,30.18,10.0,NNW,3.5,-,N/A,,Clear,340,2013-03-26 08:15:00
3:35 AM,26.6,19.4,74,30.18,10.0,Calm,Calm,-,N/A,,Clear,0,2013-03-26 08:35:00
3:55 AM,24.8,19.4,80,30.19,10.0,Calm,Calm,-,N/A,,Clear,0,2013-03-26 08:55:00
4:15 AM,23.0,19.4,86,30.19,10.0,North,-9999.0,-,N/A,,Clear,0,2013-03-26 09:15:00
4:35 AM,23.0,19.4,86,30.19,10.0,Calm,Calm,-,N/A,,Clear,0,2013-03-26 09:35:00
4:55 AM,23.0,19.4,86,30.20,10.0,Calm,Calm,-,N/A,,Clear,0,2013-03-26 09:55:00
5:15 AM,23.0,19.4,86,30.20,10.0,North,-9999.0,-,N/A,,Clear,0,2013-03-26 10:15:00
5:35 AM,24.8,19.4,80,30.20,10.0,NE,3.5,-,N/A,,Clear,40,2013-03-26 10:35:00
5:55 AM,23.0,19.4,86,30.21,10.0,North,-9999.0,-,N/A,,Clear,0,2013-03-26 10:55:00
6:15 AM,23.0,19.4,86,30.21,10.0,ENE,3.5,-,N/A,,Clear,70,2013-03-26 11:15:00
6:35 AM,23.0,17.6,80,30.22,10.0,Calm,Calm,-,N/A,,Clear,0,2013-03-26 11:35:00
6:55 AM,21.2,17.6,86,30.22,10.0,North,-9999.0,-,N/A,,Clear,0,2013-03-26 11:55:00
7:15 AM,21.2,17.6,86,30.23,10.0,North,-9999.0,-,N/A,,Clear,0,2013-03-26 12:15:00
7:35 AM,21.2,17.6,86,30.24,10.0,North,-9999.0,-,N/A,,Clear,0,2013-03-26 12:35:00
7:55 AM,23.0,19.4,86,30.24,10.0,North,-9999.0,-,N/A,,Clear,0,2013-03-26 12:55:00
8:15 AM,26.6,21.2,80,30.25,10.0,Calm,Calm,-,N/A,,Clear,0,2013-03-26 13:15:00
8:35 AM,28.4,21.2,74,30.25,10.0,North,5.8,-,N/A,,Clear,360,2013-03-26 13:35:00
8:55 AM,28.4,21.2,74,30.26,10.0,NNW,5.8,-,N/A,,Clear,330,2013-03-26 13:55:00
9:15 AM,28.4,21.2,74,30.26,10.0,NW,4.6,-,N/A,,Clear,320,2013-03-26 14:15:00
9:35 AM,30.2,21.2,69,30.26,10.0,NW,6.9,-,N/A,,Clear,320,2013-03-26 14:35:00
9:55 AM,30.2,21.2,69,30.27,10.0,NW,10.4,-,N/A,,Clear,310,2013-03-26 14:55:00
10:15 AM,32.0,21.2,64,30.26,10.0,NW,6.9,-,N/A,,Scattered Clouds,310,2013-03-26 15:15:00
10:35 AM,32.0,21.2,64,30.27,10.0,NW,8.1,-,N/A,,Overcast,310,2013-03-26 15:35:00
10:55 AM,32.0,21.2,64,30.27,10.0,WNW,8.1,-,N/A,,Overcast,290,2013-03-26 15:55:00
11:15 AM,33.8,21.2,60,30.27,10.0,NW,5.8,-,N/A,,Overcast,310,2013-03-26 16:15:00
11:35 AM,33.8,19.4,56,30.27,10.0,North,8.1,-,N/A,,Overcast,350,2013-03-26 16:35:00
11:55 AM,35.6,19.4,52,30.27,10.0,NNE,10.4,-,N/A,,Overcast,20,2013-03-26 16:55:00
12:15 PM,35.6,19.4,52,30.26,10.0,NNE,9.2,-,N/A,,Overcast,20,2013-03-26 17:15:00
12:35 PM,37.4,17.6,45,30.26,10.0,North,8.1,-,N/A,,Mostly Cloudy,10,2013-03-26 17:35:00
12:55 PM,37.4,15.8,41,30.26,10.0,NNE,5.8,-,N/A,,Scattered Clouds,20,2013-03-26 17:55:00
1:15 PM,37.4,17.6,45,30.25,10.0,North,6.9,-,N/A,,Scattered Clouds,10,2013-03-26 18:15:00
1:35 PM,39.2,17.6,42,30.25,10.0,NNE,5.8,-,N/A,,Mostly Cloudy,30,2013-03-26 18:35:00
1:55 PM,37.4,17.6,45,30.25,10.0,North,8.1,-,N/A,,Overcast,10,2013-03-26 18:55:00
2:15 PM,39.2,17.6,42,30.25,10.0,NE,5.8,-,N/A,,Overcast,40,2013-03-26 19:15:00
2:35 PM,39.2,17.6,42,30.25,10.0,NNE,5.8,-,N/A,,Overcast,20,2013-03-26 19:35:00
2:55 PM,39.2,19.4,45,30.24,10.0,NW,8.1,-,N/A,,Overcast,310,2013-03-26 19:55:00
3:15 PM,38.3,16.0,40,30.24,10.0,North,3.5,-,N/A,,Overcast,360,2013-03-26 20:15:00
3:35 PM,38.3,15.6,40,30.25,10.0,North,4.6,-,N/A,,Overcast,360,2013-03-26 20:35:00
3:55 PM,38.3,14.5,38,30.24,10.0,North,5.8,-,N/A,,Overcast,360,2013-03-26 20:55:00
4:15 PM,38.7,15.8,39,30.24,10.0,NNW,5.8,-,N/A,,Overcast,330,2013-03-26 21:15:00
4:35 PM,38.7,14.7,38,30.24,10.0,NNW,5.8,-,N/A,,Overcast,330,2013-03-26 21:35:00
4:55 PM,38.7,14.9,38,30.24,10.0,NNW,6.9,-,N/A,,Overcast,330,2013-03-26 21:55:00
5:15 PM,38.1,16.5,42,30.25,10.0,North,8.1,-,N/A,,Overcast,350,2013-03-26 22:15:00
5:35 PM,37.8,19.0,47,30.25,10.0,WNW,5.8,-,N/A,,Overcast,290,2013-03-26 22:35:00
5:55 PM,37.0,21.0,52,30.25,10.0,WNW,4.6,-,N/A,,Mostly Cloudy,290,2013-03-26 22:55:00
6:15 PM,37.4,20.5,51,30.26,10.0,WNW,6.9,-,N/A,,Overcast,290,2013-03-26 23:15:00
6:35 PM,37.2,20.5,51,30.26,10.0,WNW,8.1,-,N/A,,Overcast,300,2013-03-26 23:35:00
6:55 PM,36.5,23.9,60,30.26,10.0,West,9.2,-,N/A,,Overcast,280,2013-03-26 23:55:00
7:15 PM,35.6,24.6,64,30.26,10.0,West,8.1,-,N/A,,Overcast,270,2013-03-27 00:15:00
7:35 PM,35.1,25.3,68,30.26,10.0,WNW,8.1,-,N/A,,Overcast,290,2013-03-27 00:35:00
7:55 PM,34.5,25.9,71,30.26,10.0,WNW,5.8,-,N/A,,Overcast,290,2013-03-27 00:55:00
8:15 PM,33.8,26.2,74,30.27,10.0,WNW,3.5,-,N/A,,Mostly Cloudy,300,2013-03-27 01:15:00
8:35 PM,34.0,25.7,72,30.27,10.0,NW,3.5,-,N/A,,Scattered Clouds,310,2013-03-27 01:35:00
8:55 PM,33.8,25.3,71,30.28,10.0,NW,3.5,-,N/A,,Scattered Clouds,310,2013-03-27 01:55:00
9:15 PM,33.3,25.5,73,30.28,10.0,NW,4.6,-,N/A,,Overcast,310,2013-03-27 02:15:00
9:35 PM,32.7,25.5,75,30.28,10.0,NW,3.5,-,N/A,,Scattered Clouds,310,2013-03-27 02:35:00
9:55 PM,32.5,25.7,76,30.28,10.0,WNW,5.8,-,N/A,,Mostly Cloudy,300,2013-03-27 02:55:00
10:15 PM,31.5,24.8,76,30.29,10.0,Calm,Calm,-,N/A,,Scattered Clouds,0,2013-03-27 03:15:00
10:35 PM,30.9,25.7,81,30.29,10.0,WNW,4.6,-,N/A,,Scattered Clouds,290,2013-03-27 03:35:00
10:55 PM,30.0,25.2,82,30.29,10.0,Calm,Calm,-,N/A,,Mostly Cloudy,0,2013-03-27 03:55:00
11:15 PM,31.1,26.6,83,30.29,10.0,WNW,3.5,-,N/A,,Mostly Cloudy,290,2013-03-27 04:15:00
11:35 PM,29.1,25.5,86,30.29,10.0,Calm,Calm,-,N/A,,Scattered Clouds,0,2013-03-27 04:35:00
11:55 PM,30.2,25.3,82,30.30,10.0,West,4.6,-,N/A,,Clear,280,2013-03-27 04:55:00